Tracking 19286 objects as of 18-Nov-2018
HD Live streaming from Space Station
objects crossing your sky now

BS-3A (YURI 3A)

Track BS-3A (YURI 3A) now!
BS-3A (YURI 3A) is classified as:


NORAD ID: 20771
Int'l Code: 1990-077A
Perigee: 36,146.5 km
Apogee: 36,269.4 km
Inclination: 15.1 °
Period: 1,457.3 minutes
Semi major axis: 42578 km
RCS: 1.6597 m2 (large)
Launch date: August 28, 1990
Source: Japan (JPN)
Launch site: TANEGASHIMA SPACE CENTER (TNSTA)
aabbcc
Your satellite tracking list
Your tracking list is empty




NASA's NSSDC Master Catalog

Two Line Element Set (TLE):
1 20771U 90077A   18320.54468085 -.00000228 +00000-0 +00000-0 0  9997
2 20771 015.1320 020.5512 0014432 223.1266 136.7485 00.98812325108216
Source of the keplerian elements: AFSPC